Regional Weather Roundup
Issued by NWS

Home | Current Version | Previous Version | Graphics & Text | Print | Product List | Glossary On
Versions: 1 2 3 4 5 6 7 8 9 10 11 12 13 14 15 16 17 18 19 20 21 22 23 24 25 26 27 28 29 30 31 32 33 34 35 36 37 38 39 40 41 42 43 44 45 46 47 48 49 50
000
ASUS45 KPSR 080610
RWRAZ

ARIZONA HOURLY REGIONAL WEATHER ROUNDUP
NATIONAL WEATHER SERVICE PHOENIX AZ
1100 PM MST SUN FEB 07 2016

NOTE: FAIR INDICATES FEW OR NO CLOUDS BELOW 12,000 FEET WITH NO
SIGNIFICANT WEATHER AND/OR OBSTRUCTIONS TO VISIBILITY.

AZZ001>003-036-080700-
NORTHWEST ARIZONA

CITY           SKY/WX    TMP DP  RH WIND       PRES   REMARKS
BULLHEAD CITY  CLEAR     66  19  16 N28       30.28R
KINGMAN        CLEAR     47  20  34 NE13      30.37R
6HR MIN TEMP:  43; 6HR MAX TEMP:  64;

$$

AZZ004>008-015-016-018-080700-
NORTH CENTRAL ARIZONA

CITY           SKY/WX    TMP DP  RH WIND       PRES   REMARKS
GRAND CANYON   CLEAR     33  15  47 SE6       30.48S WCI  28
6HR MIN TEMP:  26; 6HR MAX TEMP:  47;

WILLIAMS       CLEAR     37  14  38 NE6       30.48R WCI  33
PRESCOTT       CLEAR     36  20  52 S5        30.38R WCI  32
6HR MIN TEMP:  35; 6HR MAX TEMP:  61;

FLAGSTAFF      CLEAR     37  15  40 E13G23    30.44S WCI  29
6HR MIN TEMP:  36; 6HR MAX TEMP:  44;

PAYSON         CLEAR     50  16  25 NE16      30.35S
PAGE           CLEAR     35  24  64 CALM      30.51R
6HR MIN TEMP:  34; 6HR MAX TEMP:  45;

$$

AZZ009>014-017-080700-
NORTHEAST ARIZONA

CITY           SKY/WX    TMP DP  RH WIND       PRES   REMARKS
WINSLOW        CLEAR     33  19  56 W10       30.46R WCI  25
6HR MIN TEMP:  29; 6HR MAX TEMP:  55;

SAINT JOHNS    CLEAR     31  18  58 S6        30.43R WCI  25
6HR MIN TEMP:  30; 6HR MAX TEMP:  52;

WINDOW ROCK    CLEAR     28   0  29 CALM      30.45R
6HR MIN TEMP:  27; 6HR MAX TEMP:  49;

SHOW LOW       CLEAR     28  18  64 CALM      30.45R
$$

AZZ023-080700-
GREATER PHOENIX AREA

CITY           SKY/WX    TMP DP  RH WIND       PRES   REMARKS
PHOENIX        CLEAR     61  28  28 E6        30.15R
6HR MIN TEMP:  59; 6HR MAX TEMP:  78;

BUCKEYE        CLEAR     52  28  40 N8        30.18R
LUKE AFB       CLEAR     65  22  19 N10       30.15R
6HR MIN TEMP:  61; 6HR MAX TEMP:  76;

DEER VALLEY    CLEAR     59  23  25 NE6       30.17R
6HR MIN TEMP:  59; 6HR MAX TEMP:  77;

SCOTTSDALE     CLEAR     69  18  14 N7        30.18R
6HR MIN TEMP:  61; 6HR MAX TEMP:  78;

$$

AZZ027-028-080700-
SOUTHWEST MARICOPA COUNTY AND PINAL COUNTY

CITY           SKY/WX    TMP DP  RH WIND       PRES   REMARKS
CASA GRANDE    PTCLDY    57  25  28 CALM      30.17R
6HR MIN TEMP:  55; 6HR MAX TEMP:  75;

GILA BEND      HAZE      52  27  37 S6        30.14R VSB 7/8
6HR MIN TEMP:  50; 6HR MAX TEMP:  74;

$$

AZZ503-504-507>509-080700-
SOUTHEAST ARIZONA

CITY           SKY/WX    TMP DP  RH WIND       PRES   REMARKS
TUCSON         PTCLDY    50  22  33 CALM      30.20F
6HR MIN TEMP:  48; 6HR MAX TEMP:  69;

DAVIS-MONTHAN  PTCLDY    49  20  31 E9        30.19S
6HR MIN TEMP:  47; 6HR MAX TEMP:  67;

NOGALES        MOCLDY    46  15  28 CALM      30.23R
6HR MIN TEMP:  45; 6HR MAX TEMP:  71;

SIERRA VISTA   MOCLDY    46  12  25 W2        30.30R
6HR MIN TEMP:  45; 6HR MAX TEMP:  62;

DOUGLAS        MOCLDY    39  12  33 NW8       30.28R WCI  33
6HR MIN TEMP:  39; 6HR MAX TEMP:  65;

SAFFORD        PTCLDY    43  20  39 SE3       30.27R
6HR MIN TEMP:  42; 6HR MAX TEMP:  64;

$$

AZZ020-021-025-026-031-080700-
SOUTHWEST ARIZONA

CITY           SKY/WX    TMP DP  RH WIND       PRES   REMARKS
YUMA           PTCLDY    64  23  21 N8        30.14S
6HR MIN TEMP:  63; 6HR MAX TEMP:  79;

$$

CAZ031-033-041-043-047-048-061-080700-
SOUTHERN CALIFORNIA

CITY           SKY/WX    TMP DP  RH WIND       PRES   REMARKS
DOWNTOWN L.A.  CLEAR     62  34  35 CALM      30.11S
6HR MIN TEMP:  62; 6HR MAX TEMP:  81;

L.A. AIRPORT   CLEAR     68  28  22 SE6       30.12R
6HR MIN TEMP:  65; 6HR MAX TEMP:  74;

SAN DIEGO      CLEAR     62  26  25 CALM      30.11S
6HR MIN TEMP:  62; 6HR MAX TEMP:  77;

BURBANK        CLEAR     65  23  20 CALM      30.13R
6HR MIN TEMP:  65; 6HR MAX TEMP:  84;

ONTARIO        CLEAR     75  15  10 NE18G32   30.14S
6HR MIN TEMP:  74; 6HR MAX TEMP:  81;

RIVERSIDE      CLEAR     73  16  11 NE13G24   30.18R
6HR MIN TEMP:  73; 6HR MAX TEMP:  80;

PALM SPRINGS   CLEAR     67  22  18 W7        30.23R
6HR MIN TEMP:  67; 6HR MAX TEMP:  82;

EL CENTRO NAS  CLEAR     53  19  26 W8        30.18R
6HR MIN TEMP:  53; 6HR MAX TEMP:  81;

IMPERIAL       CLEAR     55  25  31 W8        30.15S
6HR MIN TEMP:  55; 6HR MAX TEMP:  81;

BLYTHE         CLEAR     64  23  21 N12       30.18S
6HR MIN TEMP:  63; 6HR MAX TEMP:  80;

NEEDLES        CLEAR     64  19  17 N15       30.26R
6HR MIN TEMP:  64; 6HR MAX TEMP:  75;

$$

NVZ020-UTZ003-080700-
SOUTHERN NEVADA-UTAH

CITY           SKY/WX    TMP DP  RH WIND       PRES   REMARKS
LAS VEGAS      CLEAR     56  24  29 NE8       30.37R
6HR MIN TEMP:  55; 6HR MAX TEMP:  71;

SALT LAKE CITY PTCLDY    29  25  85 CALM      30.66S FOG
6HR MIN TEMP:  27; 6HR MAX TEMP:  36;

$$

NMZ009-TXZ055-080700-
NEW MEXICO-WEST TEXAS

CITY           SKY/WX    TMP DP  RH WIND       PRES   REMARKS
ALBUQUERQUE    CLOUDY    33  18  53 SE5       30.40R WCI  29
6HR MIN TEMP:  31; 6HR MAX TEMP:  55;

EL PASO        CLOUDY    45  16  31 N5        30.30R
6HR MIN TEMP:  42; 6HR MAX TEMP:  62;

$$


........................KEY........................
SKY/WX - SKY CONDITION/WEATHER
TMP    - TEMPERATURE IN FAHRENHEIT
DP     - DEW POINT IN FAHRENHEIT
RH     - RELATIVE HUMIDITY IN PERCENT
WIND   - DIRECTION AND SPEED IN MILES PER HOUR (MPH)
VRB    - VARIABLE WIND DIRECTION
PRES   - MEAN SEA LEVEL PRESSURE IN INCHES OF MERCURY
         F - FALLING PRESSURE   R - RISING PRESSURE
         S - STEADY PRESSURE
VSB    - VISIBILITY IN MILES
HX     - HEAT INDEX IN FAHRENHEIT
WCI    - WIND CHILL INDEX IN FAHRENHEIT
TC     - TEMPERATURE IN CELSIUS WHICH IS ALSO KNOWN AS
         TEMPERATURE IN CENTIGRADE
AFB    - AIR FORCE BASE
         LUKE AFB IS LUKE AIR FORCE BASE
         DAVIS-MONTHAN IS DAVIS-MONTHAN AIR FORCE BASE
NAS    - NAVAL AIR STATION
         EL CENTRO NAS IS EL CENTRO NAVAL AIR STATION
N/A    - NOT AVAILABLE




USA.gov is the U.S. government's official web portal to all federal, state and local government web resources and services.